• In Deutschland
  • Länderverzeichnis
  • Für 7 Tage
  • Wassertemperatur
  • Satellitenkarten
  • Wetterkarte
  • Widgets
  • user-avatar
    Anmelden

    Stündliche Wetter Berat

    Heute, 29 März, Mittwoch

    Zeit Temperatur Niederschläge Wind Luftdruck Luftfeuchtigkeit
    00:00 +9°C° 0 mm 2 m/S 748 mmHg 65%
    01:00 +9°C° 0 mm 2 m/S 747 mmHg 64%
    02:00 +9°C° 0 mm 2 m/S 747 mmHg 64%
    03:00 +8°C° 0 mm 2 m/S 747 mmHg 64%
    04:00 +8°C° 0 mm 2 m/S 747 mmHg 64%
    05:00 +9°C° 0 mm 2 m/S 747 mmHg 62%
    06:00 +10°C° 0 mm 2 m/S 747 mmHg 60%
    07:00 +13°C° 0 mm 2 m/S 748 mmHg 56%
    08:00 +15°C° 0 mm 2 m/S 748 mmHg 50%
    09:00 +17°C° 0 mm 2 m/S 748 mmHg 44%
    10:00 +19°C° 0 mm 2 m/S 748 mmHg 38%
    11:00 +20°C° 0 mm 2 m/S 747 mmHg 36%
    12:00 +21°C° 0 mm 3 m/S 747 mmHg 33%
    13:00 +21°C° 0 mm 3 m/S 747 mmHg 31%
    14:00 +21°C° 0 mm 3 m/S 747 mmHg 33%
    15:00 +20°C° 0 mm 3 m/S 746 mmHg 35%
    16:00 +20°C° 0 mm 3 m/S 746 mmHg 37%
    17:00 +18°C° 0 mm 3 m/S 746 mmHg 46%
    18:00 +14°C° 0 mm 3 m/S 746 mmHg 55%
    19:00 +12°C° 0 mm 2 m/S 746 mmHg 64%
    20:00 +12°C° 0 mm 2 m/S 746 mmHg 63%
    21:00 +12°C° 0 mm 2 m/S 747 mmHg 63%
    22:00 +10°C° 0 mm 2 m/S 747 mmHg 62%
    23:00 +10°C° 0 mm 2 m/S 747 mmHg 61%

    Morgen, 30 März, Donnerstag

    Zeit Temperatur Niederschläge Wind Luftdruck Luftfeuchtigkeit
    00:00 +10°C° 0 mm 2 m/S 747 mmHg 60%
    01:00 +10°C° 0 mm 2 m/S 747 mmHg 59%
    02:00 +10°C° 0 mm 2 m/S 747 mmHg 60%
    03:00 +9°C° 0 mm 2 m/S 747 mmHg 60%
    04:00 +9°C° 0 mm 2 m/S 747 mmHg 60%
    05:00 +10°C° 0 mm 2 m/S 747 mmHg 59%
    06:00 +12°C° 0 mm 2 m/S 747 mmHg 58%
    07:00 +14°C° 0 mm 2 m/S 748 mmHg 57%
    08:00 +16°C° 0 mm 2 m/S 748 mmHg 51%
    09:00 +18°C° 0 mm 2 m/S 748 mmHg 45%
    10:00 +20°C° 0 mm 2 m/S 748 mmHg 38%
    11:00 +21°C° 0 mm 2 m/S 747 mmHg 37%
    12:00 +22°C° 0 mm 3 m/S 747 mmHg 35%
    13:00 +22°C° 0 mm 3 m/S 747 mmHg 33%
    14:00 +22°C° 0 mm 3 m/S 747 mmHg 36%
    15:00 +22°C° 0 mm 4 m/S 747 mmHg 38%
    16:00 +21°C° 0 mm 4 m/S 747 mmHg 41%
    17:00 +19°C° 0 mm 4 m/S 747 mmHg 50%
    18:00 +16°C° 0 mm 3 m/S 747 mmHg 60%
    19:00 +14°C° 0 mm 2 m/S 747 mmHg 70%
    20:00 +14°C° 0 mm 2 m/S 748 mmHg 70%
    21:00 +14°C° 0 mm 2 m/S 748 mmHg 70%
    22:00 +13°C° 0 mm 2 m/S 748 mmHg 70%
    23:00 +13°C° 0 mm 2 m/S 748 mmHg 71%

    übermorgen, 31 März, Freitag

    Zeit Temperatur Niederschläge Wind Luftdruck Luftfeuchtigkeit
    00:00 +13°C° 0 mm 2 m/S 748 mmHg 73%
    01:00 +13°C° 0 mm 2 m/S 748 mmHg 74%
    02:00 +12°C° 0 mm 2 m/S 748 mmHg 75%
    03:00 +12°C° 0 mm 2 m/S 748 mmHg 76%
    04:00 +12°C° 0 mm 2 m/S 748 mmHg 78%
    05:00 +12°C° 0 mm 2 m/S 748 mmHg 74%
    06:00 +13°C° 0 mm 2 m/S 749 mmHg 71%
    07:00 +14°C° 0 mm 2 m/S 749 mmHg 68%
    08:00 +16°C° 0 mm 2 m/S 749 mmHg 60%
    09:00 +18°C° 0 mm 2 m/S 749 mmHg 52%
    10:00 +20°C° 0 mm 2 m/S 749 mmHg 44%
    11:00 +21°C° 0 mm 2 m/S 749 mmHg 42%
    12:00 +23°C° 0 mm 2 m/S 749 mmHg 40%
    13:00 +24°C° 0 mm 2 m/S 748 mmHg 38%
    14:00 +23°C° 0 mm 2 m/S 748 mmHg 41%
    15:00 +21°C° 0 mm 2 m/S 748 mmHg 44%
    16:00 +20°C° 0 mm 3 m/S 747 mmHg 47%
    17:00 +18°C° 0 mm 2 m/S 748 mmHg 56%
    18:00 +16°C° 0 mm 2 m/S 748 mmHg 64%
    19:00 +14°C° 0 mm 1 m/S 748 mmHg 73%
    20:00 +14°C° 0 mm 1 m/S 748 mmHg 74%
    21:00 +13°C° 0 mm 1 m/S 748 mmHg 75%
    22:00 +13°C° 0 mm 1 m/S 749 mmHg 76%
    23:00 +13°C° 0 mm 1 m/S 748 mmHg 77%

    1 April, Samstag

    Zeit Temperatur Niederschläge Wind Luftdruck Luftfeuchtigkeit
    00:00 +12°C° 0 mm 1 m/S 748 mmHg 78%
    01:00 +12°C° 0 mm 1 m/S 748 mmHg 79%
    02:00 +12°C° 0 mm 1 m/S 748 mmHg 80%
    03:00 +11°C° 0 mm 1 m/S 748 mmHg 80%
    04:00 +11°C° 0 mm 1 m/S 748 mmHg 80%
    05:00 +12°C° 0 mm 1 m/S 748 mmHg 77%
    06:00 +13°C° 0 mm 2 m/S 748 mmHg 74%
    07:00 +14°C° 0 mm 2 m/S 748 mmHg 70%
    08:00 +16°C° 0 mm 1 m/S 748 mmHg 62%
    09:00 +19°C° 0 mm 1 m/S 748 mmHg 55%
    10:00 +21°C° 0 mm 1 m/S 748 mmHg 47%
    11:00 +21°C° 0 mm 2 m/S 748 mmHg 45%
    12:00 +21°C° 0 mm 2 m/S 747 mmHg 43%
    13:00 +22°C° 0 mm 3 m/S 747 mmHg 41%
    14:00 +21°C° 0 mm 3 m/S 747 mmHg 45%
    15:00 +20°C° 0 mm 3 m/S 746 mmHg 49%
    16:00 +19°C° 0 mm 3 m/S 746 mmHg 53%
    17:00 +17°C° 0 mm 2 m/S 746 mmHg 63%
    18:00 +15°C° 0 mm 2 m/S 746 mmHg 73%
    19:00 +13°C° 0 mm 1 m/S 746 mmHg 84%
    20:00 +13°C° 0 mm 1 m/S 747 mmHg 85%
    21:00 +12°C° 0 mm 1 m/S 747 mmHg 87%
    22:00 +12°C° 0 mm 1 m/S 747 mmHg 88%
    23:00 +12°C° 0 mm 1 m/S 747 mmHg 88%

    2 April, Sonntag

    Zeit Temperatur Niederschläge Wind Luftdruck Luftfeuchtigkeit
    00:00 +12°C° 0 mm 1 m/S 747 mmHg 89%
    01:00 +10°C° 0 mm 2 m/S 747 mmHg 89%
    02:00 +10°C° 0 mm 2 m/S 747 mmHg 89%
    03:00 +10°C° 0 mm 2 m/S 747 mmHg 89%
    04:00 +10°C° 0 mm 2 m/S 747 mmHg 88%
    05:00 +12°C° 0 mm 2 m/S 747 mmHg 83%
    06:00 +13°C° 0 mm 2 m/S 747 mmHg 78%
    07:00 +14°C° 0 mm 2 m/S 747 mmHg 72%
    08:00 +16°C° 0 mm 2 m/S 748 mmHg 63%
    09:00 +19°C° 0 mm 1 m/S 748 mmHg 54%
    10:00 +21°C° 0 mm 1 m/S 748 mmHg 44%
    11:00 +20°C° 0 mm 2 m/S 748 mmHg 42%
    12:00 +21°C° 0 mm 2 m/S 747 mmHg 40%
    13:00 +21°C° 0 mm 3 m/S 747 mmHg 38%
    14:00 +20°C° 0,3 mm 3 m/S 747 mmHg 43%
    15:00 +20°C° 0,3 mm 3 m/S 747 mmHg 48%
    16:00 +19°C° 0,3 mm 3 m/S 746 mmHg 53%
    17:00 +17°C° 0,1 mm 2 m/S 747 mmHg 63%
    18:00 +15°C° 0,1 mm 2 m/S 747 mmHg 73%
    19:00 +12°C° 0,1 mm 1 m/S 747 mmHg 83%
    20:00 +12°C° 0 mm 1 m/S 747 mmHg 83%
    21:00 +12°C° 0 mm 1 m/S 748 mmHg 83%
    22:00 +11°C° 0 mm 1 m/S 748 mmHg 83%
    23:00 +11°C° 0 mm 1 m/S 748 mmHg 81%

    3 April, Montag

    Zeit Temperatur Niederschläge Wind Luftdruck Luftfeuchtigkeit
    00:00 +11°C° 0 mm 1 m/S 748 mmHg 80%
    01:00 +10°C° 0 mm 1 m/S 747 mmHg 78%
    02:00 +9°C° 0 mm 2 m/S 747 mmHg 76%
    03:00 +9°C° 0 mm 2 m/S 747 mmHg 75%
    04:00 +8°C° 0 mm 2 m/S 747 mmHg 73%
    05:00 +9°C° 0 mm 2 m/S 747 mmHg 69%
    06:00 +10°C° 0 mm 2 m/S 747 mmHg 65%
    07:00 +12°C° 0 mm 2 m/S 747 mmHg 61%
    08:00 +15°C° 0 mm 2 m/S 747 mmHg 53%
    09:00 +18°C° 0 mm 1 m/S 747 mmHg 44%
    10:00 +20°C° 0 mm 1 m/S 747 mmHg 35%
    11:00 +20°C° 0 mm 2 m/S 747 mmHg 34%
    12:00 +20°C° 0 mm 2 m/S 746 mmHg 33%
    13:00 +21°C° 0 mm 3 m/S 746 mmHg 32%
    14:00 +20°C° 0 mm 3 m/S 745 mmHg 34%
    15:00 +20°C° 0 mm 4 m/S 745 mmHg 37%
    16:00 +19°C° 0 mm 4 m/S 744 mmHg 39%
    17:00 +17°C° 0 mm 3 m/S 744 mmHg 46%
    18:00 +14°C° 0 mm 3 m/S 745 mmHg 54%
    19:00 +13°C° 0 mm 2 m/S 745 mmHg 61%
    20:00 +13°C° 0 mm 2 m/S 745 mmHg 61%
    21:00 +13°C° 0 mm 2 m/S 745 mmHg 61%
    22:00 +12°C° 0 mm 2 m/S 745 mmHg 61%
    23:00 +12°C° 0 mm 2 m/S 745 mmHg 64%
    Mehr zeigen